DELTA 1 DEB, 10869

Orbit data source: Space-Track

DELTA 1 DEB, 10869 is space debris in SSO originally from a launch on Thu, 29 Jul 1976 UTC launched from the Air Force Western Test Range (AFWTR). Debris objects in space refer to the collection of defunct objects orbiting the Earth. Examples of debris include non-operational satellites, rocket bodies, and fragments generated from explosions, collisions, or faulty payload assembly.

Loading next visibility...
Identifier
10869, 1976-077CX
Orbit
SSO
Country
Flag of USUS
Related business
Manufacturer
Unknown
Mission
Spacecraft
Bus & Motor
Unknown
Mass
Unknown
Launch date (UTC)
1976-07-29 (49 years ago)
Launch vehicle
Unknown
Launch site
Air Force Western Test Range (AFWTR)
Object type
Payload
Rocket body
Debris
Shape & HBR
Unknown shape, 0.1 m
Radar Cross Section
Small (<0.1 m²)

Expand to show TLE details & history
Last TLE update: 2 days ago

TLE from 2 days ago
0 DELTA 1 DEB
1 10869U 76077CX  25291.11288669  .00000180  00000-0  16231-2 0  9995
2 10869 102.2473  55.3142 0027797 240.8717 305.3840 12.43430886231239
Epoch: 2025-10-18T02:42Z
TLE epoch observation values (Epoch: 2025-10-18T02:42:33.410Z)
Latitude
-5.99525°
Longitude
166.52654°
Altitude
1,482.986 km
Speed
7.128 km/s
True Right ascension
15h 36m 03s
True Declination
-5° 57' 47"
Sunlit
Object was in daylight at epoch
Visualization orbit readout
Latitude
Unknown
Longitude
Unknown
Altitude
Unknown
Speed
Unknown
Apparent Right ascension
Unknown
Apparent Declination
Unknown
Sunlit
N/A
Visualization observer readout
Local Sidereal Time
17:01:24
Azimuth
Unknown
Elevation
Unknown
Doppler factor
Unknown
Orbital elements
Apogee altitude
1,511.548 km
Perigee altitude
1,467.808 km
Semi-major axis
7,867.815 km
Eccentricity
0.00278
Inclination
102.2473°
RAAN
55.3142°
Arg. of periapsis
240.8717°
True anomaly
305.12378°
Mean anomaly
305.384°
Eccentric anomaly
305.25394°
Mean motion
3.11001 °/min
Orbital period
115.76 mins
BSTAR
0.0016231
Loading maneuver chart data...
Computing Atmospheric mass density...
Loading historical data...
Loading historical data...
Loading historical data...
Loading historical data...
Loading historical data...
Loading historical data...
Loading historical data...

Documentation

Showing up to 5 results
|